Zurück zum Katalog

YUNYAO-1 40

AktivWetterSSO
NORAD 62732·PAYLOAD·🇨🇳 China
Dieser Satellitenname wurde noch nicht durch offizielle Quellen bestätigt.

Gestartet Jan 20, 2025 von Jiuquan Satellite Launch Center

Loading…

Nächste Überflüge (nächste 24 Stunden)

TLE

AktuellSource: Space-Track

Epoche: Sep 14, 2026, 14:01 UTC

1 62732U 25013D   26257.58408422  .00002368  00000-0  14238-3 0  9996
2 62732  97.6630  67.1586 0009961  84.6174 275.6193 15.11823859 90781

Verfolge YUNYAO-1 40 in Echtzeit mit AllMySat

Download on the App Store